"TOA5","MOW","CPU:UNC_MeetingWaters","DataHourly"
"TIMESTAMP","SondeTempC","SpCond","DOSat","DOmg","pH","Turb","BattVolt_Min"
"TS","","","","","","",""
"","Smp","Smp","Smp","Smp","Smp","Smp","Min"
"2009-10-01 04:00:00",13.8299999237,0.0,101.400001526,-56.2999992371,8.09000015259,-6.59999990463,12.8000001907
"2009-10-01 05:00:00",12.6300001144,0.0,101.199996948,-59.7999992371,8.14999961853,-6.59999990463,12.7899999619
"2009-10-01 06:00:00",13.1000003815,0.0,100.099998474,-63.2000007629,8.21000003815,-6.09999990463,12.7600002289
"2009-10-01 07:00:00",13.1300001144,0.0,100.5,-63.2999992371,8.22000026703,-6.59999990463,12.7399997711
"2009-10-01 08:00:00",13.4499998093,0.0,100.099998474,-58.2999992371,8.11999988556,-6.59999990463,12.7100000381
"2009-10-01 09:00:00",13.220000267,0.0,100.300003052,-59.0,8.14000034332,-6.59999990463,12.6999998093
"2009-10-01 10:00:00",12.9300003052,0.0,100.599998474,-61.7000007629,8.18999958038,-6.59999990463,12.6899995804
"2009-10-01 11:00:00",12.9099998474,0.0,100.300003052,-62.7999992371,8.21000003815,-6.59999990463,12.6899995804
"2009-10-01 12:00:00",13.6899995804,0.0,100.400001526,-56.0999984741,8.07999992371,-6.59999990463,12.7600002289
"2009-10-01 13:00:00",14.6000003815,0.0,100.300003052,-54.9000015259,8.06000041962,-6.69999980927,13.1300001144
"2009-10-01 14:00:00",15.4799995422,0.0,100.199996948,-28.3999996185,7.59000015259,-6.69999980927,13.7399997711
"2009-10-01 15:00:00",16.3500003815,0.0,99.9000015259,-42.4000015259,7.82999992371,-6.69999980927,13.6899995804
"2009-10-01 16:00:00",20.1800003052,0.0,99.0,-25.0,7.51999998093,-6.90000009537,14.1300001144
"2009-10-01 17:00:00",23.1100006104,0.0,97.8000030518,-14.6000003815,7.32999992371,-7.09999990463,13.3000001907
"2009-10-01 18:00:00",26.8600006104,0.0,99.3000030518,-12.1999998093,7.28999996185,-7.30000019073,13.2700004578
"2009-10-01 19:00:00",27.0100002289,0.0,97.0,-10.5,7.26000022888,-7.30000019073,13.2700004578
"2009-10-01 20:00:00",20.3500003815,0.0,99.6999969482,-24.2000007629,7.5,-7.0,13.1999998093
"2009-10-01 21:00:00",18.6299991608,0.0,99.5999984741,-34.0999984741,7.67999982834,-6.80000019073,13.0799999237
"2009-10-01 22:00:00",16.9500007629,0.0,100.300003052,-48.2999992371,7.92999982834,-6.80000019073,12.9499998093
"2009-10-01 23:00:00",15.9600000381,0.0,100.599998474,-52.0999984741,8.01000022888,-6.69999980927,12.9200000763
"2009-10-02 00:00:00",15.3500003815,0.0,100.5,-52.2000007629,8.01000022888,-6.69999980927,12.8900003433
"2009-10-02 01:00:00",14.6899995804,0.0,100.599998474,-59.9000015259,8.14999961853,-6.59999990463,12.8800001144
"2009-10-02 02:00:00",14.2899999619,0.0,100.699996948,-54.7999992371,8.06000041962,-6.59999990463,12.8500003815
"2009-10-02 03:00:00",13.8400001526,0.0010000000475,100.699996948,-59.4000015259,8.14000034332,-6.59999990463,12.8299999237
"2009-10-02 04:00:00",13.6400003433,0.0010000000475,101.0,-62.4000015259,8.19999980927,-6.5,12.8000001907
"2009-10-02 05:00:00",13.1000003815,0.0010000000475,100.599998474,-68.4000015259,8.31000041962,-6.5,12.779999733
"2009-10-02 06:00:00",12.8400001526,0.0010000000475,100.400001526,-71.5,8.35999965668,-6.5,12.7399997711
"2009-10-02 07:00:00",12.470000267,0.0010000000475,100.699996948,-65.4000015259,8.25,-6.5,12.720000267
"2009-10-02 08:00:00",12.25,0.0010000000475,100.699996948,-72.0999984741,8.38000011444,-6.5,12.6700000763
"2009-10-02 09:00:00",12.220000267,0.0010000000475,100.5,-73.5,8.39999961853,-6.5,12.6800003052
"2009-10-02 10:00:00",12.1000003815,0.0010000000475,100.5,-73.6999969482,8.40999984741,-6.5,12.6599998474
"2009-10-02 11:00:00",12.1000003815,0.0010000000475,100.5,-77.5,8.47000026703,-6.5,12.6599998474
"2009-10-02 12:00:00",13.1599998474,0.0010000000475,100.0,-77.0999984741,8.46000003815,-6.5,12.6899995804
"2009-10-02 13:00:00",14.8900003433,0.0010000000475,99.9000015259,-78.6999969482,8.47999954224,-6.69999980927,13.0500001907
"2009-10-02 14:00:00",17.3400001526,0.0010000000475,99.4000015259,-62.5,8.18000030518,-6.80000019073,13.970000267
"2009-10-02 15:00:00",18.6800003052,0.0,99.1999969482,-51.5,7.98000001907,-6.90000009537,13.9499998093
"2009-10-02 16:00:00",20.4400005341,0.0,98.6999969482,-41.0,7.80000019073,-7.0,14.0500001907
"2009-10-02 17:00:00",22.2399997711,0.0,98.8000030518,-29.8999996185,7.59999990463,-7.0,13.2700004578
"2009-10-02 18:00:00",21.8199996948,0.0,98.5999984741,-27.2999992371,7.55000019073,-7.09999990463,13.2700004578
"2009-10-02 19:00:00",20.5200004578,0.0,99.0999984741,-35.4000015259,7.69999980927,-7.0,13.2700004578
"2009-10-02 20:00:00",19.9300003052,0.0,99.0999984741,-45.0999984741,7.86999988556,-7.0,13.2100000381
"2009-10-02 21:00:00",19.2700004578,0.0,99.4000015259,-51.5,7.98000001907,-6.90000009537,13.0200004578
"2009-10-02 22:00:00",18.8799991608,0.0,99.5999984741,-55.2000007629,8.05000019073,-6.90000009537,12.9499998093
"2009-10-02 23:00:00",18.5400009155,0.0,99.6999969482,-58.2000007629,8.10000038147,-6.80000019073,12.9300003052
"2009-10-03 00:00:00",17.9899997711,0.0,99.9000015259,-60.5,8.14999961853,-6.80000019073,12.9099998474
"2009-10-03 01:00:00",17.6700000763,0.0010000000475,100.0,-65.0,8.22999954224,-6.80000019073,12.8800001144
"2009-10-03 02:00:00",17.3799991608,0.0010000000475,99.9000015259,-65.1999969482,8.22999954224,-6.80000019073,12.8599996567
"2009-10-03 03:00:00",17.1100006104,0.0010000000475,99.9000015259,-67.8000030518,8.27999973297,-6.69999980927,12.8400001526
"2009-10-03 04:00:00",17.0499992371,0.0010000000475,99.5999984741,-68.8000030518,8.30000019073,-6.69999980927,12.8199996948
"2009-10-03 05:00:00",16.6599998474,0.0010000000475,100.099998474,-70.5,8.32999992371,-6.69999980927,12.7899999619
"2009-10-03 06:00:00",16.3999996185,0.0010000000475,100.0,-69.4000015259,8.31000041962,-6.69999980927,12.7600002289
"2009-10-03 07:00:00",16.1700000763,0.0010000000475,100.199996948,-69.3000030518,8.31000041962,-6.69999980927,12.7399997711
"2009-10-03 08:00:00",15.9200000763,0.0010000000475,100.199996948,-72.0,8.35999965668,-6.69999980927,12.6899995804
"2009-10-03 09:00:00",15.75,0.0010000000475,100.199996948,-72.5,8.36999988556,-6.69999980927,12.6899995804
"2009-10-03 10:00:00",15.4899997711,0.0010000000475,100.0,-74.4000015259,8.39999961853,-6.59999990463,12.6899995804
"2009-10-03 11:00:00",15.8500003815,0.0010000000475,99.8000030518,-77.0999984741,8.44999980927,-6.59999990463,12.6899995804
"2009-10-03 12:00:00",16.0499992371,0.0010000000475,100.0,-79.4000015259,8.48999977112,-6.59999990463,12.6999998093
"2009-10-03 13:00:00",17.0200004578,0.0010000000475,99.9000015259,-79.5999984741,8.48999977112,-6.69999980927,12.8199996948
"2009-10-03 14:00:00",18.1599998474,0.0010000000475,99.5999984741,-70.5999984741,8.31999969482,-6.80000019073,13.4799995422
"2009-10-03 15:00:00",19.0400009155,0.0,100.300003052,-59.4000015259,8.11999988556,-6.90000009537,13.3199996948
"2009-10-03 16:00:00",21.2199993134,0.0,99.5999984741,-47.7000007629,7.90999984741,-7.0,13.4200000763
"2009-10-03 17:00:00",25.1399993896,0.0,98.6999969482,-22.2999992371,7.46000003815,-7.30000019073,13.9200000763
"2009-10-03 18:00:00",29.0799999237,0.0,99.0999984741,-21.5,7.44000005722,-7.59999990463,13.1599998474
"2009-10-03 19:00:00",29.5100002289,0.0,97.1999969482,-10.6000003815,7.26000022888,-7.5,13.1499996185
"2009-10-03 20:00:00",22.7099990845,0.0,99.5999984741,-27.7000007629,7.55999994278,-7.0,13.1800003052
"2009-10-03 21:00:00",20.5200004578,0.0,99.5,-39.0999984741,7.76000022888,-6.90000009537,13.0399999619
"2009-10-03 22:00:00",18.9300003052,0.0,100.099998474,-43.2000007629,7.84000015259,-6.69999980927,12.9399995804
"2009-10-03 23:00:00",17.7399997711,0.0,100.5,-51.4000015259,7.98999977112,-6.59999990463,12.9200000763
"2009-10-04 00:00:00",16.7399997711,0.0,100.599998474,-60.4000015259,8.14999961853,-6.59999990463,12.8900003433
"2009-10-04 01:00:00",15.7700004578,0.0,100.900001526,-65.0,8.22999954224,-6.59999990463,12.8699998856
"2009-10-04 02:00:00",15.2600002289,0.0,100.800003052,-62.7000007629,8.19999980927,-6.5,12.8400001526
"2009-10-04 03:00:00",14.7100000381,0.0,101.0,-60.2999992371,8.15999984741,-6.5,12.8199996948
"2009-10-04 04:00:00",14.4200000763,0.0010000000475,101.099998474,-61.2999992371,8.17000007629,-6.5,12.8000001907
"2009-10-04 05:00:00",14.1800003052,0.0010000000475,100.900001526,-58.2000007629,8.11999988556,-6.5,12.7600002289
"2009-10-04 06:00:00",13.25,0.0010000000475,101.300003052,-58.2000007629,8.11999988556,-6.5,12.75
"2009-10-04 07:00:00",12.6099996567,0.0010000000475,101.300003052,-62.7000007629,8.21000003815,-6.5,12.720000267
"2009-10-04 08:00:00",12.3900003433,0.0010000000475,101.099998474,-64.5,8.23999977112,-6.40000009537,12.6899995804
"2009-10-04 09:00:00",12.0200004578,0.0010000000475,101.300003052,-63.7000007629,8.22999954224,-6.40000009537,12.6800003052
"2009-10-04 10:00:00",11.7100000381,0.0010000000475,101.300003052,-69.0,8.31999969482,-6.40000009537,12.6499996185
"2009-10-04 11:00:00",12.029999733,0.0010000000475,101.099998474,-67.5,8.28999996185,-6.40000009537,12.6499996185
"2009-10-04 12:00:00",12.8500003815,0.0010000000475,101.0,-71.0,8.35000038147,-6.5,12.7299995422
"2009-10-04 13:00:00",14.5799999237,0.0010000000475,100.599998474,-69.8000030518,8.31999969482,-6.59999990463,13.3000001907
"2009-10-04 14:00:00",16.2399997711,0.0,100.099998474,-62.7999992371,8.18999958038,-6.69999980927,13.6400003433
"2009-10-04 15:00:00",17.5200004578,0.0,101.0,-42.2999992371,7.82999992371,-6.59999990463,14.1300001144
"2009-10-04 16:00:00",19.3199996948,0.0,101.199996948,-30.8999996185,7.61999988556,-6.59999990463,14.0399999619
"2009-10-04 17:00:00",23.1599998474,0.0,99.4000015259,-19.5,7.42000007629,-6.80000019073,13.3000001907
"2009-10-04 18:00:00",26.5100002289,0.0,99.0,-20.3999996185,7.42999982834,-7.0,13.2700004578
"2009-10-04 19:00:00",22.0400009155,0.0,99.9000015259,-26.2000007629,7.53999996185,-6.80000019073,13.2700004578
"2009-10-04 20:00:00",19.7600002289,0.0,99.8000030518,-36.9000015259,7.73000001907,-6.59999990463,13.3000001907
"2009-10-04 21:00:00",18.3299999237,0.0,100.199996948,-49.2999992371,7.94999980927,-6.5,13.0900001526
"2009-10-04 22:00:00",17.5100002289,0.0,100.400001526,-55.2999992371,8.06000041962,-6.5,12.9600000381
"2009-10-04 23:00:00",16.8799991608,0.0,100.400001526,-61.2999992371,8.15999984741,-6.5,12.9300003052
"2009-10-05 00:00:00",16.4400005341,0.0,100.5,-63.5,8.21000003815,-6.40000009537,12.8999996185
"2009-10-05 01:00:00",16.3999996185,0.0,100.699996948,-58.5999984741,8.11999988556,-6.5,12.8800001144
"2009-10-05 02:00:00",16.4200000763,0.0,100.599998474,-59.2000007629,8.13000011444,-6.5,12.8599996567
"2009-10-05 03:00:00",16.4400005341,0.0,100.300003052,-56.0999984741,8.06999969482,-6.5,12.8400001526
"2009-10-05 04:00:00",16.5699996948,0.0,100.599998474,-58.2999992371,8.10999965668,-6.40000009537,12.8100004196
"2009-10-05 05:00:00",16.1200008392,0.0,100.599998474,-62.5999984741,8.18999958038,-6.40000009537,12.7899999619
"2009-10-05 06:00:00",15.8199996948,0.0,100.699996948,-62.9000015259,8.19999980927,-6.5,12.7700004578
"2009-10-05 07:00:00",15.2700004578,0.0010000000475,101.400001526,-69.3000030518,8.31000041962,-6.40000009537,12.7399997711
"2009-10-05 08:00:00",15.3000001907,0.0010000000475,101.199996948,-70.0999984741,8.32999992371,-6.30000019073,12.720000267
"2009-10-05 09:00:00",15.0,0.00200000009499,100.699996948,-80.3000030518,8.51000022888,-6.40000009537,12.6899995804
"2009-10-05 10:00:00",15.0900001526,0.00300000002608,100.599998474,-80.4000015259,8.51000022888,-6.5,12.6800003052
"2009-10-05 11:00:00",14.8800001144,0.00600000005215,100.699996948,-87.0999984741,8.63000011444,-6.5,12.6800003052
"2009-10-05 12:00:00",15.6700000763,0.00700000021607,95.5999984741,-84.0999984741,8.56999969482,9.10000038147,12.6800003052
"2009-10-05 13:00:00",16.0,0.00800000037998,97.5,-82.0999984741,8.53999996185,12.5,12.9099998474
"2009-10-05 14:00:00",16.9300003052,0.00800000037998,93.9000015259,-77.0999984741,8.43999958038,30.0,13.4200000763
"2009-10-05 15:00:00",16.7700004578,0.00800000037998,94.5,-67.5,8.27000045776,23.0,13.4799995422
"2009-10-05 16:00:00",16.8999996185,0.00800000037998,96.1999969482,-58.7999992371,8.11999988556,22.1000003815,14.1899995804
"2009-10-05 17:00:00",17.6599998474,0.00600000005215,99.0999984741,-50.7000007629,7.96999979019,-6.09999990463,14.1499996185
"2009-10-05 18:00:00",17.6000003815,0.00499999988824,98.9000015259,-57.7000007629,8.10000038147,-6.0,13.3900003433
"2009-10-05 19:00:00",17.6499996185,0.00400000018999,99.0999984741,-63.7000007629,8.19999980927,-3.0,13.3900003433
"2009-10-05 20:00:00",17.6399993896,0.00400000018999,99.0,-65.5,8.22999954224,-4.80000019073,13.3699998856
"2009-10-05 21:00:00",17.6399993896,0.00300000002608,99.5,-68.0,8.27999973297,-5.30000019073,13.2299995422
"2009-10-05 22:00:00",17.1900005341,0.00300000002608,99.5,-68.5,8.28999996185,-4.90000009537,12.9499998093
"2009-10-05 23:00:00",16.8199996948,0.00300000002608,99.9000015259,-69.9000015259,8.31999969482,-4.40000009537,12.9200000763
"2009-10-06 00:00:00",16.75,0.00300000002608,100.0,-72.4000015259,8.35999965668,-4.0,12.8900003433
"2009-10-06 01:00:00",16.6800003052,0.00300000002608,99.6999969482,-74.8000030518,8.39999961853,-3.70000004768,12.8699998856
"2009-10-06 02:00:00",16.6299991608,0.00300000002608,100.199996948,-72.5999984741,8.36999988556,-3.70000004768,12.8599996567
"2009-10-06 03:00:00",16.6299991608,0.00300000002608,100.199996948,-74.6999969482,8.39999961853,-3.59999990463,12.8400001526
"2009-10-06 04:00:00",16.5599994659,0.00300000002608,100.400001526,-75.5,8.42000007629,-3.0,12.8000001907
"2009-10-06 05:00:00",16.6499996185,0.00300000002608,100.099998474,-76.3000030518,8.43000030518,-4.0,12.7899999619
"2009-10-06 06:00:00",16.6900005341,0.00300000002608,99.6999969482,-75.3000030518,8.40999984741,-3.70000004768,12.75
"2009-10-06 07:00:00",16.5699996948,0.00300000002608,100.0,-77.0999984741,8.43999958038,-4.19999980927,12.7299995422
"2009-10-06 08:00:00",16.6299991608,0.00300000002608,99.9000015259,-76.0999984741,8.43000030518,-4.69999980927,12.720000267
"2009-10-06 09:00:00",16.6299991608,0.00300000002608,100.0,-76.1999969482,8.43000030518,-5.5,12.6999998093
"2009-10-06 10:00:00",16.5799999237,0.00300000002608,99.9000015259,-83.3000030518,8.55000019073,-6.69999980927,12.6899995804
"2009-10-06 11:00:00",16.6700000763,0.00400000018999,99.8000030518,-80.9000015259,8.51000022888,-6.30000019073,12.6800003052
"2009-10-06 12:00:00",16.7700004578,0.00600000005215,99.8000030518,-81.0,8.51000022888,-1.5,12.6999998093
"2009-10-06 13:00:00",16.8899993896,0.00800000037998,99.8000030518,-85.8000030518,8.60000038147,-6.19999980927,12.7700004578
"2009-10-06 14:00:00",17.1599998474,0.00800000037998,99.8000030518,-82.0,8.52999973297,-0.10000000149,12.9600000381
"2009-10-06 15:00:00",17.2299995422,0.00800000037998,100.0,-82.0,8.52999973297,-5.5,13.1300001144
"2009-10-06 16:00:00",17.4500007629,0.00899999961257,99.9000015259,-78.8000030518,8.47000026703,0.0,13.2299995422
"2009-10-06 17:00:00",17.5799999237,0.00800000037998,97.6999969482,-78.0999984741,8.46000003815,-3.20000004768,13.2600002289
"2009-10-06 18:00:00",17.6499996185,0.00800000037998,96.4000015259,-80.0,8.48999977112,-2.5,13.25
"2009-10-06 19:00:00",17.8999996185,0.00800000037998,99.5999984741,-80.8000030518,8.5,-3.20000004768,13.2899999619
"2009-10-06 20:00:00",17.9899997711,0.00800000037998,96.1999969482,-80.1999969482,8.48999977112,-1.0,13.2299995422
"2009-10-06 21:00:00",18.0900001526,0.00800000037998,94.4000015259,-80.0999984741,8.48999977112,1.29999995232,13.1000003815
"2009-10-06 22:00:00",17.9899997711,0.00800000037998,99.6999969482,-79.5999984741,8.47999954224,-1.29999995232,12.9300003052
"2009-10-06 23:00:00",17.8999996185,0.00800000037998,99.6999969482,-79.8000030518,8.48999977112,-4.40000009537,12.8900003433
"2009-10-07 00:00:00",17.6299991608,0.00800000037998,99.5999984741,-78.9000015259,8.47000026703,-3.40000009537,12.8599996567
"2009-10-07 01:00:00",17.6700000763,0.00800000037998,99.5,-81.0,8.51000022888,-3.70000004768,12.8299999237
"2009-10-07 02:00:00",17.6000003815,0.00800000037998,99.5999984741,-80.0999984741,8.48999977112,-3.79999995232,12.8100004196
"2009-10-07 03:00:00",17.3999996185,0.00800000037998,99.5999984741,-80.0999984741,8.48999977112,-6.40000009537,12.7700004578
"2009-10-07 04:00:00",17.4699993134,0.00800000037998,99.5,-81.9000015259,8.52000045776,-6.59999990463,12.7399997711
"2009-10-07 05:00:00",17.5100002289,0.00800000037998,99.3000030518,-81.1999969482,8.51000022888,-6.69999980927,12.720000267
"2009-10-07 06:00:00",17.5599994659,0.00800000037998,99.3000030518,-81.4000015259,8.51000022888,-6.90000009537,12.6899995804
"2009-10-07 07:00:00",17.5400009155,0.00800000037998,99.0999984741,-80.4000015259,8.5,-6.90000009537,12.6800003052
"2009-10-07 08:00:00",17.6100006104,0.00700000021607,99.1999969482,-81.0999984741,8.51000022888,-6.5,12.6499996185
"2009-10-07 09:00:00",17.8099994659,0.00700000021607,99.0999984741,-81.5999984741,8.52000045776,-6.40000009537,12.6800003052
"2009-10-07 10:00:00",18.0100002289,0.00700000021607,99.0999984741,-81.5999984741,8.52000045776,-6.80000019073,12.6800003052
"2009-10-07 11:00:00",18.2299995422,0.00700000021607,99.3000030518,-81.5,8.51000022888,-6.80000019073,12.6800003052
"2009-10-07 12:00:00",18.6700000763,0.00700000021607,99.1999969482,-81.9000015259,8.52000045776,-6.80000019073,12.6599998474
"2009-10-07 13:00:00",19.5200004578,0.00700000021607,99.0999984741,-83.1999969482,8.53999996185,-6.0,12.75
"2009-10-07 14:00:00",20.7000007629,0.00700000021607,99.0,-78.0999984741,8.43999958038,-6.90000009537,13.1899995804
"2009-10-07 15:00:00",20.8400001526,0.00499999988824,98.5999984741,-67.6999969482,8.26000022888,-7.09999990463,13.3199996948
"2009-10-07 16:00:00",22.0400009155,0.00200000009499,96.8000030518,-58.5,8.10000038147,-6.90000009537,13.4099998474
"2009-10-07 17:00:00",25.8099994659,0.0,95.9000015259,-33.7000007629,7.65999984741,-7.40000009537,13.5500001907
"2009-10-07 18:00:00",29.4599990845,0.0,98.3000030518,-26.0,7.51999998093,-7.59999990463,13.8599996567
"2009-10-07 19:00:00",30.4200000763,0.0,95.5,-23.2999992371,7.46999979019,-7.69999980927,13.8699998856
"2009-10-07 20:00:00",23.6700000763,0.0,97.5,-27.3999996185,7.55000019073,-7.30000019073,13.1199998856
"2009-10-07 21:00:00",21.2399997711,0.0,99.3000030518,-35.2000007629,7.69000005722,-7.19999980927,13.0200004578
"2009-10-07 22:00:00",19.3400001526,0.0,92.4000015259,-42.7000007629,7.82999992371,-3.59999990463,12.9300003052
"2009-10-07 23:00:00",17.7299995422,0.0,100.199996948,-61.7000007629,8.17000007629,19.5,12.9099998474
"2009-10-08 00:00:00",16.6599998474,0.0,99.8000030518,-63.4000015259,8.19999980927,-5.5,12.8800001144
"2009-10-08 01:00:00",16.0799999237,0.0010000000475,100.099998474,-66.4000015259,8.26000022888,-5.80000019073,12.8599996567
"2009-10-08 02:00:00",15.1099996567,0.0010000000475,99.4000015259,-70.1999969482,8.32999992371,-5.19999980927,12.8400001526
"2009-10-08 03:00:00",14.8500003815,0.0,99.0,-67.9000015259,8.28999996185,-3.5,12.8199996948
"2009-10-08 04:00:00",15.0100002289,0.0,98.8000030518,-71.5999984741,8.35000038147,-6.59999990463,12.779999733
"2009-10-08 05:00:00",14.2299995422,0.0,99.9000015259,-63.4000015259,8.21000003815,-4.80000019073,12.779999733
"2009-10-08 06:00:00",13.7600002289,0.0,98.1999969482,-70.6999969482,8.34000015259,-5.09999990463,12.75
"2009-10-08 07:00:00",12.3999996185,0.0,100.0,-73.5,8.39999961853,-3.29999995232,12.75
"2009-10-08 08:00:00",11.6199998856,0.0010000000475,101.199996948,-65.9000015259,8.27000045776,-4.0,12.7299995422
"2009-10-08 09:00:00",10.8599996567,0.0010000000475,100.800003052,-76.8000030518,8.47000026703,-2.40000009537,12.7100000381
"2009-10-08 10:00:00",10.9300003052,0.0010000000475,100.300003052,-73.9000015259,8.42000007629,-6.5,12.6899995804
"2009-10-08 11:00:00",10.6800003052,0.0010000000475,99.5,-79.5999984741,8.52000045776,-3.70000004768,12.6800003052
"2009-10-08 12:00:00",11.7100000381,0.0010000000475,100.199996948,-84.6999969482,8.60999965668,-3.79999995232,12.6700000763
"2009-10-08 13:00:00",13.0,0.0010000000475,100.800003052,-83.0,8.56999969482,-4.19999980927,12.8900003433
"2009-10-08 14:00:00",14.5900001526,0.0010000000475,100.099998474,-75.9000015259,8.43000030518,-5.69999980927,13.0699996948
"2009-10-08 15:00:00",15.6400003433,0.0,99.8000030518,-68.4000015259,8.30000019073,-6.5,13.279999733
"2009-10-08 16:00:00",17.0100002289,0.0,100.0,-60.5999984741,8.14999961853,-6.69999980927,13.3299999237
"2009-10-08 17:00:00",21.7600002289,0.0,98.3000030518,-37.0,7.71999979019,-6.69999980927,14.0600004196
"2009-10-08 18:00:00",24.8500003815,0.0,99.5,-36.2999992371,7.69999980927,-7.30000019073,14.0500001907
"2009-10-08 19:00:00",25.7299995422,0.0,97.3000030518,-33.2000007629,7.65000009537,-7.40000009537,13.2700004578
"2009-10-08 20:00:00",19.9400005341,0.0,99.8000030518,-39.9000015259,7.78000020981,-7.09999990463,13.1599998474
"2009-10-08 21:00:00",18.0900001526,0.0,100.300003052,-52.5,8.01000022888,-6.90000009537,13.029999733
"2009-10-08 22:00:00",16.5499992371,0.0,100.800003052,-59.0,8.11999988556,-6.80000019073,12.9399995804
"2009-10-08 23:00:00",15.6899995804,0.0,100.699996948,-63.5999984741,8.21000003815,-6.80000019073,12.9200000763
"2009-10-09 00:00:00",15.0799999237,0.0,101.0,-72.1999969482,8.36999988556,-6.69999980927,12.8900003433
"2009-10-09 01:00:00",14.6700000763,0.0,101.300003052,-69.4000015259,8.31999969482,-6.69999980927,12.8599996567
"2009-10-09 02:00:00",14.220000267,0.0,100.900001526,-74.5999984741,8.40999984741,-6.69999980927,12.8500003815
"2009-10-09 03:00:00",14.1199998856,0.0010000000475,101.099998474,-77.1999969482,8.46000003815,-6.59999990463,12.8299999237
"2009-10-09 04:00:00",14.1599998474,0.0010000000475,101.0,-80.0,8.51000022888,-6.59999990463,12.7899999619
"2009-10-09 05:00:00",13.779999733,0.0010000000475,101.099998474,-75.5,8.43000030518,-6.59999990463,12.779999733
"2009-10-09 06:00:00",13.5500001907,0.0010000000475,101.0,-78.3000030518,8.47999954224,-6.59999990463,12.7600002289
"2009-10-09 07:00:00",13.3800001144,0.0010000000475,101.099998474,-77.4000015259,8.47000026703,-6.59999990463,12.7299995422
"2009-10-09 08:00:00",13.2700004578,0.0010000000475,100.800003052,-83.0999984741,8.56999969482,-6.59999990463,12.6999998093
"2009-10-09 09:00:00",13.2600002289,0.0010000000475,100.900001526,-83.1999969482,8.56999969482,-6.59999990463,12.6800003052
"2009-10-09 10:00:00",13.7600002289,0.0010000000475,100.599998474,-86.1999969482,8.61999988556,-6.59999990463,12.6599998474
"2009-10-09 11:00:00",14.3299999237,0.0010000000475,100.5,-86.0999984741,8.61999988556,-6.69999980927,12.6599998474
"2009-10-09 12:00:00",15.2100000381,0.0010000000475,100.400001526,-82.1999969482,8.53999996185,-6.69999980927,12.7299995422
"2009-10-09 13:00:00",17.2299995422,0.0010000000475,99.9000015259,-79.5999984741,8.48999977112,-6.80000019073,13.029999733
"2009-10-09 14:00:00",18.7999992371,0.0010000000475,99.4000015259,-69.3000030518,8.30000019073,-6.90000009537,13.5799999237
"2009-10-09 15:00:00",19.8700008392,0.0,99.5999984741,-67.9000015259,8.27000045776,-7.0,13.529999733
"2009-10-09 16:00:00",20.2900009155,0.0,99.1999969482,-66.8000030518,8.25,-7.0,13.5100002289
"2009-10-09 17:00:00",21.3199996948,0.0,98.8000030518,-64.5,8.19999980927,-7.09999990463,14.029999733
"2009-10-09 18:00:00",20.7399997711,0.0,99.1999969482,-64.0999984741,8.19999980927,-7.0,13.0600004196
"2009-10-09 19:00:00",21.6399993896,0.0,98.6999969482,-63.0999984741,8.18000030518,-7.0,13.0799999237
"2009-10-09 20:00:00",22.3799991608,0.0,97.9000015259,-60.7000007629,8.13000011444,-7.09999990463,13.1400003433
"2009-10-09 21:00:00",21.0400009155,0.0,97.8000030518,-65.1999969482,8.22000026703,-7.0,13.0500001907
"2009-10-09 22:00:00",20.4699993134,0.0,98.3000030518,-67.0999984741,8.25,-6.0,12.9600000381